Time,TemperatureF,DewpointF,PressureIn,WindDirection,WindDirectionDegrees,WindSpeedMPH,WindSpeedGustMPH,Humidity,HourlyPrecipIn,Conditions,Clouds,dailyrainin,SoftwareType,DateUTC
2013-01-17 00:07:00,36.5,34.0,29.95,West,259,2.0,5.0,89,0.00,,,0.00,weatherlink.com 1.10,2013-01-17 05:07:00,
2013-01-17 00:21:00,36.8,34.0,29.97,WSW,256,1.0,7.0,88,0.00,,,0.00,weatherlink.com 1.10,2013-01-17 05:21:00,
2013-01-17 00:37:00,37.5,34.0,29.95,West,272,4.0,8.0,87,0.00,,,0.00,weatherlink.com 1.10,2013-01-17 05:37:00,
2013-01-17 00:53:00,37.8,34.0,29.95,WNW,282,4.0,7.0,86,0.00,,,0.00,weatherlink.com 1.10,2013-01-17 05:53:00,
2013-01-17 01:08:00,38.1,34.0,29.95,West,275,10.0,12.0,84,0.00,,,0.00,weatherlink.com 1.10,2013-01-17 06:08:00,
2013-01-17 01:23:00,38.5,34.0,29.94,West,280,4.0,11.0,83,0.00,,,0.00,weatherlink.com 1.10,2013-01-17 06:23:00,
2013-01-17 01:38:00,38.4,34.0,29.96,WNW,283,2.0,9.0,83,0.00,,,0.00,weatherlink.com 1.10,2013-01-17 06:38:00,
2013-01-17 01:53:00,38.5,33.0,29.96,West,279,6.0,12.0,82,0.00,,,0.00,weatherlink.com 1.10,2013-01-17 06:53:00,
2013-01-17 02:08:00,38.6,33.0,29.95,West,276,2.0,7.0,81,0.00,,,0.00,weatherlink.com 1.10,2013-01-17 07:08:00,
2013-01-17 02:25:00,38.6,33.0,29.97,West,278,9.0,12.0,79,0.00,,,0.00,weatherlink.com 1.10,2013-01-17 07:25:00,
2013-01-17 02:39:00,38.7,32.0,29.96,West,262,4.0,10.0,78,0.00,,,0.00,weatherlink.com 1.10,2013-01-17 07:39:00,
2013-01-17 02:54:00,38.8,32.0,29.96,West,278,5.0,14.0,77,0.00,,,0.00,weatherlink.com 1.10,2013-01-17 07:54:00,
2013-01-17 03:10:00,38.6,32.0,29.96,West,261,3.0,10.0,77,0.00,,,0.00,weatherlink.com 1.10,2013-01-17 08:10:00,
2013-01-17 03:24:00,38.5,32.0,29.97,SW,222,1.0,8.0,76,0.00,,,0.00,weatherlink.com 1.10,2013-01-17 08:24:00,
2013-01-17 03:40:00,38.8,30.0,29.96,WNW,288,6.0,9.0,71,0.00,,,0.00,weatherlink.com 1.10,2013-01-17 08:40:00,
2013-01-17 03:56:00,38.7,30.0,29.96,WNW,290,4.0,11.0,72,0.00,,,0.00,weatherlink.com 1.10,2013-01-17 08:56:00,
2013-01-17 04:11:00,38.4,30.0,29.95,West,281,2.0,9.0,72,0.00,,,0.00,weatherlink.com 1.10,2013-01-17 09:11:00,
2013-01-17 04:27:00,38.1,30.0,29.95,West,274,5.0,10.0,73,0.00,,,0.00,weatherlink.com 1.10,2013-01-17 09:27:00,
2013-01-17 04:41:00,38.1,30.0,29.96,West,272,5.0,8.0,72,0.00,,,0.00,weatherlink.com 1.10,2013-01-17 09:41:00,
2013-01-17 05:11:00,37.9,29.0,29.98,West,269,8.0,9.0,70,0.00,,,0.00,weatherlink.com 1.10,2013-01-17 10:11:00,
2013-01-17 05:28:00,37.6,29.0,29.97,West,273,8.0,11.0,71,0.00,,,0.00,weatherlink.com 1.10,2013-01-17 10:28:00,
2013-01-17 05:43:00,37.4,29.0,29.99,NW,311,8.0,14.0,72,0.00,,,0.00,weatherlink.com 1.10,2013-01-17 10:43:00,
2013-01-17 05:58:00,37.2,29.0,29.99,WNW,303,5.0,20.0,72,0.00,,,0.00,weatherlink.com 1.10,2013-01-17 10:58:00,
2013-01-17 06:13:00,36.9,29.0,30.00,WNW,284,7.0,14.0,72,0.00,,,0.00,weatherlink.com 1.10,2013-01-17 11:13:00,
2013-01-17 06:29:00,36.7,29.0,30.00,WNW,301,8.0,12.0,73,0.00,,,0.00,weatherlink.com 1.10,2013-01-17 11:29:00,
2013-01-17 06:44:00,36.7,29.0,30.02,WNW,296,6.0,13.0,73,0.00,,,0.00,weatherlink.com 1.10,2013-01-17 11:44:00,
2013-01-17 07:00:00,36.4,29.0,30.02,WNW,297,5.0,10.0,74,0.00,,,0.00,weatherlink.com 1.10,2013-01-17 12:00:00,
2013-01-17 07:15:00,36.1,29.0,30.02,West,279,3.0,9.0,74,0.00,,,0.00,weatherlink.com 1.10,2013-01-17 12:15:00,
2013-01-17 07:29:00,36.0,29.0,30.04,WNW,285,6.0,12.0,75,0.00,,,0.00,weatherlink.com 1.10,2013-01-17 12:29:00,
2013-01-17 07:45:00,35.9,29.0,30.04,NW,309,5.0,11.0,76,0.00,,,0.00,weatherlink.com 1.10,2013-01-17 12:45:00,
2013-01-17 08:01:00,35.8,29.0,30.04,WNW,300,8.0,11.0,76,0.00,,,0.00,weatherlink.com 1.10,2013-01-17 13:01:00,
2013-01-17 08:16:00,35.8,29.0,30.06,West,271,2.0,9.0,75,0.00,,,0.00,weatherlink.com 1.10,2013-01-17 13:16:00,
2013-01-17 08:31:00,35.9,29.0,30.07,NW,309,3.0,6.0,76,0.00,,,0.00,weatherlink.com 1.10,2013-01-17 13:31:00,
2013-01-17 08:46:00,36.1,29.0,30.07,WSW,252,4.0,8.0,75,0.00,,,0.00,weatherlink.com 1.10,2013-01-17 13:46:00,
2013-01-17 09:01:00,36.4,30.0,30.09,WNW,301,2.0,6.0,76,0.00,,,0.00,weatherlink.com 1.10,2013-01-17 14:01:00,
2013-01-17 09:18:00,37.0,30.0,30.09,NW,312,2.0,6.0,75,0.00,,,0.00,weatherlink.com 1.10,2013-01-17 14:18:00,
2013-01-17 09:33:00,37.1,30.0,30.09,West,276,7.0,7.0,75,0.00,,,0.00,weatherlink.com 1.10,2013-01-17 14:33:00,
2013-01-17 09:48:00,37.0,30.0,30.09,NW,310,6.0,9.0,75,0.00,,,0.00,weatherlink.com 1.10,2013-01-17 14:48:00,
2013-01-17 10:03:00,37.2,30.0,30.09,WNW,292,3.0,10.0,74,0.00,,,0.00,weatherlink.com 1.10,2013-01-17 15:03:00,
2013-01-17 10:18:00,37.2,30.0,30.09,WNW,282,6.0,9.0,74,0.00,,,0.00,weatherlink.com 1.10,2013-01-17 15:18:00,
2013-01-17 10:33:00,38.4,30.0,30.09,NW,307,6.0,11.0,72,0.00,,,0.00,weatherlink.com 1.10,2013-01-17 15:33:00,
2013-01-17 10:50:00,38.0,30.0,30.09,WNW,302,6.0,12.0,74,0.00,,,0.00,weatherlink.com 1.10,2013-01-17 15:50:00,
2013-01-17 11:05:00,38.2,30.0,30.10,WNW,286,5.0,14.0,72,0.00,,,0.00,weatherlink.com 1.10,2013-01-17 16:05:00,
2013-01-17 11:20:00,39.5,31.0,30.09,WNW,282,5.0,11.0,71,0.00,,,0.00,weatherlink.com 1.10,2013-01-17 16:20:00,
2013-01-17 11:35:00,38.7,29.0,30.09,North,350,5.0,13.0,68,0.00,,,0.00,weatherlink.com 1.10,2013-01-17 16:35:00,
2013-01-17 11:50:00,38.4,30.0,30.09,NNW,338,4.0,11.0,71,0.00,,,0.00,weatherlink.com 1.10,2013-01-17 16:50:00,
2013-01-17 12:05:00,38.4,30.0,30.08,NW,315,5.0,12.0,72,0.00,,,0.00,weatherlink.com 1.10,2013-01-17 17:05:00,
2013-01-17 12:21:00,39.0,31.0,30.08,West,270,6.0,11.0,72,0.00,,,0.00,weatherlink.com 1.10,2013-01-17 17:21:00,
2013-01-17 12:36:00,39.6,31.0,30.08,NNW,327,5.0,10.0,70,0.00,,,0.00,weatherlink.com 1.10,2013-01-17 17:36:00,
2013-01-17 12:51:00,39.5,31.0,30.07,NW,316,7.0,9.0,71,0.00,,,0.00,weatherlink.com 1.10,2013-01-17 17:51:00,
2013-01-17 13:06:00,39.7,31.0,30.06,NW,315,3.0,9.0,70,0.00,,,0.00,weatherlink.com 1.10,2013-01-17 18:06:00,
2013-01-17 13:21:00,40.1,31.0,30.06,WNW,290,4.0,10.0,69,0.00,,,0.00,weatherlink.com 1.10,2013-01-17 18:21:00,
2013-01-17 13:36:00,39.9,30.0,30.06,WNW,296,4.0,9.0,68,0.00,,,0.00,weatherlink.com 1.10,2013-01-17 18:36:00,
2013-01-17 13:53:00,39.4,30.0,30.07,West,272,5.0,8.0,70,0.00,,,0.00,weatherlink.com 1.10,2013-01-17 18:53:00,
2013-01-17 14:08:00,39.5,30.0,30.06,North,355,2.0,7.0,70,0.00,,,0.00,weatherlink.com 1.10,2013-01-17 19:08:00,
2013-01-17 14:23:00,39.4,30.0,30.05,NNW,333,2.0,9.0,70,0.00,,,0.00,weatherlink.com 1.10,2013-01-17 19:23:00,
2013-01-17 14:53:00,39.4,30.0,30.05,WNW,286,4.0,7.0,69,0.00,,,0.00,weatherlink.com 1.10,2013-01-17 19:53:00,
2013-01-17 15:08:00,39.3,30.0,30.05,NNW,340,3.0,7.0,69,0.00,,,0.00,weatherlink.com 1.10,2013-01-17 20:08:00,
2013-01-17 15:25:00,39.1,30.0,30.05,NNW,338,1.0,6.0,69,0.00,,,0.00,weatherlink.com 1.10,2013-01-17 20:25:00,
2013-01-17 15:40:00,38.8,29.0,30.06,NW,305,0.0,5.0,69,0.00,,,0.00,weatherlink.com 1.10,2013-01-17 20:40:00,
2013-01-17 15:54:00,38.7,30.0,30.07,NW,305,0.0,4.0,70,0.00,,,0.00,weatherlink.com 1.10,2013-01-17 20:54:00,
2013-01-17 16:10:00,38.7,29.0,30.08,NW,305,0.0,2.0,69,0.00,,,0.00,weatherlink.com 1.10,2013-01-17 21:10:00,
2013-01-17 16:26:00,38.8,30.0,30.07,NW,305,0.0,0.0,70,0.00,,,0.00,weatherlink.com 1.10,2013-01-17 21:26:00,
2013-01-17 16:41:00,38.7,30.0,30.07,NW,305,0.0,1.0,70,0.00,,,0.00,weatherlink.com 1.10,2013-01-17 21:41:00,
2013-01-17 16:56:00,38.2,30.0,30.08,WNW,290,0.0,2.0,72,0.00,,,0.00,weatherlink.com 1.10,2013-01-17 21:56:00,
2013-01-17 17:11:00,38.1,30.0,30.08,West,274,0.0,2.0,72,0.00,,,0.00,weatherlink.com 1.10,2013-01-17 22:11:00,
2013-01-17 17:26:00,37.8,30.0,30.08,West,274,0.0,0.0,74,0.00,,,0.00,weatherlink.com 1.10,2013-01-17 22:26:00,
2013-01-17 17:41:00,37.6,30.0,30.09,West,274,0.0,0.0,74,0.00,,,0.00,weatherlink.com 1.10,2013-01-17 22:41:00,
2013-01-17 17:56:00,37.6,30.0,30.08,West,274,0.0,0.0,74,0.00,,,0.00,weatherlink.com 1.10,2013-01-17 22:56:00,
2013-01-17 18:13:00,37.5,30.0,30.09,West,274,0.0,2.0,74,0.00,,,0.00,weatherlink.com 1.10,2013-01-17 23:13:00,
2013-01-17 18:28:00,37.1,30.0,30.09,West,264,0.0,2.0,75,0.00,,,0.00,weatherlink.com 1.10,2013-01-17 23:28:00,
2013-01-17 18:43:00,37.1,30.0,30.09,West,264,0.0,0.0,75,0.00,,,0.00,weatherlink.com 1.10,2013-01-17 23:43:00,
2013-01-17 18:58:00,37.2,30.0,30.09,West,264,0.0,0.0,75,0.00,,,0.00,weatherlink.com 1.10,2013-01-17 23:58:00,
2013-01-17 19:13:00,36.9,30.0,30.09,West,264,0.0,0.0,76,0.00,,,0.00,weatherlink.com 1.10,2013-01-18 00:13:00,
2013-01-17 19:28:00,36.4,30.0,30.09,West,264,0.0,2.0,77,0.00,,,0.00,weatherlink.com 1.10,2013-01-18 00:28:00,
2013-01-17 19:45:00,36.5,30.0,30.09,West,264,0.0,0.0,77,0.00,,,0.00,weatherlink.com 1.10,2013-01-18 00:45:00,
2013-01-17 20:00:00,36.5,30.0,30.08,West,264,0.0,0.0,77,0.00,,,0.00,weatherlink.com 1.10,2013-01-18 01:00:00,
2013-01-17 20:15:00,36.1,31.0,30.07,West,264,0.0,0.0,80,0.00,,,0.00,weatherlink.com 1.10,2013-01-18 01:15:00,
2013-01-17 20:30:00,35.7,30.0,30.07,West,264,0.0,0.0,81,0.00,,,0.00,weatherlink.com 1.10,2013-01-18 01:30:00,
2013-01-17 20:45:00,35.5,30.0,30.06,West,264,0.0,0.0,81,0.00,,,0.00,weatherlink.com 1.10,2013-01-18 01:45:00,
2013-01-17 21:00:00,36.0,31.0,30.05,West,264,0.0,0.0,81,0.00,,,0.00,weatherlink.com 1.10,2013-01-18 02:00:00,
2013-01-17 21:15:00,35.9,30.0,30.06,West,264,0.0,0.0,80,0.00,,,0.00,weatherlink.com 1.10,2013-01-18 02:15:00,
2013-01-17 21:31:00,36.1,30.0,30.06,West,264,0.0,0.0,78,0.00,,,0.00,weatherlink.com 1.10,2013-01-18 02:31:00,
2013-01-17 21:47:00,36.3,30.0,30.06,West,264,0.0,0.0,77,0.00,,,0.00,weatherlink.com 1.10,2013-01-18 02:47:00,
2013-01-17 22:02:00,36.4,30.0,30.04,West,264,0.0,0.0,77,0.00,,,0.00,weatherlink.com 1.10,2013-01-18 03:02:00,
2013-01-17 22:17:00,36.2,29.0,30.04,West,264,0.0,1.0,76,0.00,,,0.00,weatherlink.com 1.10,2013-01-18 03:17:00,
2013-01-17 22:33:00,35.7,29.0,30.02,West,264,0.0,2.0,78,0.00,,,0.00,weatherlink.com 1.10,2013-01-18 03:33:00,
2013-01-17 22:48:00,35.4,30.0,30.03,NW,309,0.0,2.0,79,0.00,,,0.00,weatherlink.com 1.10,2013-01-18 03:48:00,
2013-01-17 23:03:00,35.8,29.0,30.04,West,273,0.0,1.0,77,0.00,,,0.00,weatherlink.com 1.10,2013-01-18 04:03:00,
2013-01-17 23:18:00,35.8,29.0,30.04,West,273,1.0,1.0,77,0.00,,,0.00,weatherlink.com 1.10,2013-01-18 04:18:00,
2013-01-17 23:33:00,35.9,29.0,30.03,West,273,0.0,0.0,76,0.00,,,0.00,weatherlink.com 1.10,2013-01-18 04:33:00,
2013-01-17 23:48:00,35.7,29.0,30.02,West,280,1.0,4.0,77,0.00,,,0.00,weatherlink.com 1.10,2013-01-18 04:48:00,